Tracking 22459 objects as of 3-Mar-2021
HD Live streaming from Space Station
objects crossing your sky now

SL-12 R/B(AUX MOTOR)

Track SL-12 R/B(AUX MOTOR) now!
10-day predictions


NORAD ID: 15338
Int'l Code: 1984-106F
Perigee: 826.3 km
Apogee: 850.5 km
Inclination: 66.6 °
Period: 101.5 minutes
Semi major axis: 7209 km
RCS: 0.8334 m2 (medium)
Launch date: September 28, 1984
Source: Commonwealth of Independent States (former USSR) (CIS)
Launch site: TYURATAM MISSILE AND SPACE COMPLEX (TTMTR)

Note: This is a ROCKET BODY
aabbcc
Your satellite tracking list
Your tracking list is empty




NASA's NSSDC Master Catalog

Two Line Element Set (TLE):
1 15338U 84106F   21061.68043825  .00000009  00000-0  45447-4 0  9992
2 15338  66.5700 214.8899 0016729 224.5623 135.4124 14.18255442884103
Source of the keplerian elements: AFSPC